Year,Month,Day,Hour,Minute,Value (Times are PST for barometer in hPa)
2016,10,14,00,00,983.64
2016,10,14,00,01,983.55
2016,10,14,00,02,983.58
2016,10,14,00,03,983.58
2016,10,14,00,04,983.61
2016,10,14,00,05,983.71
2016,10,14,00,06,983.60
2016,10,14,00,07,983.48
2016,10,14,00,08,983.44
2016,10,14,00,09,983.44
2016,10,14,00,10,983.41
2016,10,14,00,11,983.36
2016,10,14,00,12,983.26
2016,10,14,00,13,983.14
2016,10,14,00,14,983.04
2016,10,14,00,15,983.00
2016,10,14,00,16,983.04
2016,10,14,00,17,983.07
2016,10,14,00,18,983.10
2016,10,14,00,19,983.04
2016,10,14,00,20,983.10
2016,10,14,00,21,983.10
2016,10,14,00,22,983.07
2016,10,14,00,23,982.97
2016,10,14,00,24,982.90
2016,10,14,00,25,982.93
2016,10,14,00,26,982.93
2016,10,14,00,27,983.00
2016,10,14,00,28,983.04
2016,10,14,00,29,983.07
2016,10,14,00,30,983.00
2016,10,14,00,31,983.00
2016,10,14,00,32,982.97
2016,10,14,00,33,982.97
2016,10,14,00,34,983.04
2016,10,14,00,35,983.07
2016,10,14,00,36,983.14
2016,10,14,00,37,983.10
2016,10,14,00,38,983.14
2016,10,14,00,39,983.15
2016,10,14,00,40,983.27
2016,10,14,00,41,983.34
2016,10,14,00,42,983.33
2016,10,14,00,43,983.21
2016,10,14,00,44,983.34
2016,10,14,00,45,983.33
2016,10,14,00,46,983.20
2016,10,14,00,47,983.17
2016,10,14,00,48,983.20
2016,10,14,00,49,983.27
2016,10,14,00,50,983.20
2016,10,14,00,51,983.11
2016,10,14,00,52,983.24
2016,10,14,00,53,983.27
2016,10,14,00,54,983.27
2016,10,14,00,55,983.31
2016,10,14,00,56,983.37
2016,10,14,00,57,983.31
2016,10,14,00,58,983.27
2016,10,14,00,59,983.24
2016,10,14,01,00,983.20
2016,10,14,01,01,983.31
2016,10,14,01,02,983.31
2016,10,14,01,03,983.31
2016,10,14,01,04,983.37
2016,10,14,01,05,983.34
2016,10,14,01,06,983.34
2016,10,14,01,07,983.31
2016,10,14,01,08,983.44
2016,10,14,01,09,983.48
2016,10,14,01,10,983.49
2016,10,14,01,11,983.61
2016,10,14,01,12,983.57
2016,10,14,01,13,983.44
2016,10,14,01,14,983.41
2016,10,14,01,15,983.44
2016,10,14,01,16,983.51
2016,10,14,01,17,983.45
2016,10,14,01,18,983.54
2016,10,14,01,19,983.58
2016,10,14,01,20,983.61
2016,10,14,01,21,983.64
2016,10,14,01,22,983.58
2016,10,14,01,23,983.54
2016,10,14,01,24,983.61
2016,10,14,01,25,983.64
2016,10,14,01,26,983.54
2016,10,14,01,27,983.62
2016,10,14,01,28,983.75
2016,10,14,01,29,983.68
2016,10,14,01,30,983.68
2016,10,14,01,31,983.68
2016,10,14,01,32,983.81
2016,10,14,01,33,983.75
2016,10,14,01,34,983.85
2016,10,14,01,35,983.78
2016,10,14,01,36,983.81
2016,10,14,01,37,983.87
2016,10,14,01,38,983.75
2016,10,14,01,39,983.81
2016,10,14,01,40,983.85
2016,10,14,01,41,983.88
2016,10,14,01,42,983.88
2016,10,14,01,43,983.92
2016,10,14,01,44,983.92
2016,10,14,01,45,983.78
2016,10,14,01,46,983.78
2016,10,14,01,47,983.75
2016,10,14,01,48,983.75
2016,10,14,01,49,983.78
2016,10,14,01,50,983.71
2016,10,14,01,51,983.88
2016,10,14,01,52,983.96
2016,10,14,01,53,984.12
2016,10,14,01,54,984.19
2016,10,14,01,55,984.16
2016,10,14,01,56,984.32
2016,10,14,01,57,984.39
2016,10,14,01,58,984.36
2016,10,14,01,59,984.32
2016,10,14,02,00,984.59
2016,10,14,02,01,984.63
2016,10,14,02,02,984.69
2016,10,14,02,03,984.73
2016,10,14,02,04,984.77
2016,10,14,02,05,984.86
2016,10,14,02,06,984.83
2016,10,14,02,07,984.80
2016,10,14,02,08,984.80
2016,10,14,02,09,984.83
2016,10,14,02,10,984.80
2016,10,14,02,11,984.90
2016,10,14,02,12,984.93
2016,10,14,02,13,984.84
2016,10,14,02,14,985.03
2016,10,14,02,15,985.07
2016,10,14,02,16,985.07
2016,10,14,02,17,985.20
2016,10,14,02,18,985.17
2016,10,14,02,19,985.20
2016,10,14,02,20,985.13
2016,10,14,02,21,985.10
2016,10,14,02,22,985.17
2016,10,14,02,23,985.17
2016,10,14,02,24,985.17
2016,10,14,02,25,985.27
2016,10,14,02,26,985.34
2016,10,14,02,27,985.41
2016,10,14,02,28,985.51
2016,10,14,02,29,985.57
2016,10,14,02,30,985.64
2016,10,14,02,31,985.64
2016,10,14,02,32,985.64
2016,10,14,02,33,985.64
2016,10,14,02,34,985.64
2016,10,14,02,35,985.72
2016,10,14,02,36,985.85
2016,10,14,02,37,985.95
2016,10,14,02,38,986.12
2016,10,14,02,39,986.12
2016,10,14,02,40,986.25
2016,10,14,02,41,986.32
2016,10,14,02,42,986.25
2016,10,14,02,43,986.25
2016,10,14,02,44,986.29
2016,10,14,02,45,986.29
2016,10,14,02,46,986.35
2016,10,14,02,47,986.29
2016,10,14,02,48,986.46
2016,10,14,02,49,986.66
2016,10,14,02,50,986.62
2016,10,14,02,51,986.66
2016,10,14,02,52,986.69
2016,10,14,02,53,986.79
2016,10,14,02,54,986.87
2016,10,14,02,55,987.00
2016,10,14,02,56,987.03
2016,10,14,02,57,987.06
2016,10,14,02,58,987.11
2016,10,14,02,59,987.27
2016,10,14,03,00,987.17
2016,10,14,03,01,987.27
2016,10,14,03,02,987.21
2016,10,14,03,03,987.30
2016,10,14,03,04,987.44
2016,10,14,03,05,987.40
2016,10,14,03,06,987.40
2016,10,14,03,07,987.33
2016,10,14,03,08,987.17
2016,10,14,03,09,986.99
2016,10,14,03,10,986.82
2016,10,14,03,11,986.66
2016,10,14,03,12,986.69
2016,10,14,03,13,986.62
2016,10,14,03,14,986.66
2016,10,14,03,15,986.59
2016,10,14,03,16,986.63
2016,10,14,03,17,986.76
2016,10,14,03,18,986.74
2016,10,14,03,19,986.86
2016,10,14,03,20,986.90
2016,10,14,03,21,986.93
2016,10,14,03,22,986.96
2016,10,14,03,23,986.96
2016,10,14,03,24,987.00
2016,10,14,03,25,987.06
2016,10,14,03,26,987.17
2016,10,14,03,27,987.27
2016,10,14,03,28,987.23
2016,10,14,03,29,987.27
2016,10,14,03,30,987.27
2016,10,14,03,31,987.30
2016,10,14,03,32,987.40
2016,10,14,03,33,987.40
2016,10,14,03,34,987.51
2016,10,14,03,35,987.51
2016,10,14,03,36,987.51
2016,10,14,03,37,987.51
2016,10,14,03,38,987.40
2016,10,14,03,39,987.12
2016,10,14,03,40,986.96
2016,10,14,03,41,986.93
2016,10,14,03,42,987.00
2016,10,14,03,43,987.06
2016,10,14,03,44,987.07
2016,10,14,03,45,987.17
2016,10,14,03,46,987.16
2016,10,14,03,47,987.00
2016,10,14,03,48,986.92
2016,10,14,03,49,986.83
2016,10,14,03,50,986.83
2016,10,14,03,51,986.79
2016,10,14,03,52,986.69
2016,10,14,03,53,986.68
2016,10,14,03,54,986.57
2016,10,14,03,55,986.69
2016,10,14,03,56,986.76
2016,10,14,03,57,986.90
2016,10,14,03,58,986.90
2016,10,14,03,59,987.00
2016,10,14,04,00,987.03
2016,10,14,04,01,987.06
2016,10,14,04,02,987.10
2016,10,14,04,03,987.17
2016,10,14,04,04,987.23
2016,10,14,04,05,987.17
2016,10,14,04,06,987.10
2016,10,14,04,07,987.20
2016,10,14,04,08,987.06
2016,10,14,04,09,987.10
2016,10,14,04,10,987.10
2016,10,14,04,11,987.03
2016,10,14,04,12,987.00
2016,10,14,04,13,986.96
2016,10,14,04,14,986.93
2016,10,14,04,15,986.93
2016,10,14,04,16,986.90
2016,10,14,04,17,986.86
2016,10,14,04,18,986.90
2016,10,14,04,19,986.86
2016,10,14,04,20,986.83
2016,10,14,04,21,986.76
2016,10,14,04,22,986.73
2016,10,14,04,23,986.62
2016,10,14,04,24,986.66
2016,10,14,04,25,986.62
2016,10,14,04,26,986.62
2016,10,14,04,27,986.59
2016,10,14,04,28,986.59
2016,10,14,04,29,986.66
2016,10,14,04,30,986.69
2016,10,14,04,31,986.73
2016,10,14,04,32,986.73
2016,10,14,04,33,986.73
2016,10,14,04,34,986.73
2016,10,14,04,35,986.79
2016,10,14,04,36,986.79
2016,10,14,04,37,986.79
2016,10,14,04,38,986.76
2016,10,14,04,39,986.76
2016,10,14,04,40,986.69
2016,10,14,04,41,986.73
2016,10,14,04,42,986.83
2016,10,14,04,43,986.83
2016,10,14,04,44,986.93
2016,10,14,04,45,986.90
2016,10,14,04,46,986.90
2016,10,14,04,47,986.93
2016,10,14,04,48,986.86
2016,10,14,04,49,986.80
2016,10,14,04,50,986.93
2016,10,14,04,51,987.10
2016,10,14,04,52,987.10
2016,10,14,04,53,987.10
2016,10,14,04,54,987.10
2016,10,14,04,55,987.06
2016,10,14,04,56,987.10
2016,10,14,04,57,987.17
2016,10,14,04,58,987.10
2016,10,14,04,59,987.06
2016,10,14,05,00,987.10
2016,10,14,05,01,987.06
2016,10,14,05,02,987.05
2016,10,14,05,03,986.96
2016,10,14,05,04,987.03
2016,10,14,05,05,987.00
2016,10,14,05,06,987.06
2016,10,14,05,07,987.10
2016,10,14,05,08,987.06
2016,10,14,05,09,987.17
2016,10,14,05,10,987.17
2016,10,14,05,11,987.18
2016,10,14,05,12,987.30
2016,10,14,05,13,987.14
2016,10,14,05,14,987.27
2016,10,14,05,15,987.17
2016,10,14,05,16,987.27
2016,10,14,05,17,987.27
2016,10,14,05,18,987.30
2016,10,14,05,19,987.40
2016,10,14,05,20,987.34
2016,10,14,05,21,987.30
2016,10,14,05,22,987.40
2016,10,14,05,23,987.34
2016,10,14,05,24,987.34
2016,10,14,05,25,987.40
2016,10,14,05,26,987.47
2016,10,14,05,27,987.40
2016,10,14,05,28,987.40
2016,10,14,05,29,987.44
2016,10,14,05,30,987.47
2016,10,14,05,31,987.44
2016,10,14,05,32,987.47
2016,10,14,05,33,987.54
2016,10,14,05,34,987.54
2016,10,14,05,35,987.57
2016,10,14,05,36,987.57
2016,10,14,05,37,987.61
2016,10,14,05,38,987.61
2016,10,14,05,39,987.57
2016,10,14,05,40,987.64
2016,10,14,05,41,987.68
2016,10,14,05,42,987.81
2016,10,14,05,43,987.81
2016,10,14,05,44,987.78
2016,10,14,05,45,987.74
2016,10,14,05,46,987.78
2016,10,14,05,47,987.71
2016,10,14,05,48,987.64
2016,10,14,05,49,987.61
2016,10,14,05,50,987.54
2016,10,14,05,51,987.47
2016,10,14,05,52,987.44
2016,10,14,05,53,987.47
2016,10,14,05,54,987.44
2016,10,14,05,55,987.40
2016,10,14,05,56,987.47
2016,10,14,05,57,987.40
2016,10,14,05,58,987.47
2016,10,14,05,59,987.44
2016,10,14,06,00,987.47
2016,10,14,06,01,987.47
2016,10,14,06,02,987.34
2016,10,14,06,03,987.40
2016,10,14,06,04,987.30
2016,10,14,06,05,987.40
2016,10,14,06,06,987.44
2016,10,14,06,07,987.51
2016,10,14,06,08,987.57
2016,10,14,06,09,987.67
2016,10,14,06,10,987.71
2016,10,14,06,11,987.71
2016,10,14,06,12,987.74
2016,10,14,06,13,987.81
2016,10,14,06,14,987.81
2016,10,14,06,15,987.88
2016,10,14,06,16,987.88
2016,10,14,06,17,987.88
2016,10,14,06,18,987.98
2016,10,14,06,19,988.01
2016,10,14,06,20,988.01
2016,10,14,06,21,988.05
2016,10,14,06,22,988.01
2016,10,14,06,23,988.05
2016,10,14,06,24,988.05
2016,10,14,06,25,988.05
2016,10,14,06,26,988.01
2016,10,14,06,27,988.08
2016,10,14,06,28,988.11
2016,10,14,06,29,988.11
2016,10,14,06,30,988.11
2016,10,14,06,31,988.08
2016,10,14,06,32,988.08
2016,10,14,06,33,988.08
2016,10,14,06,34,988.05
2016,10,14,06,35,988.01
2016,10,14,06,36,987.95
2016,10,14,06,37,987.91
2016,10,14,06,38,987.91
2016,10,14,06,39,987.88
2016,10,14,06,40,987.84
2016,10,14,06,41,987.84
2016,10,14,06,42,987.78
2016,10,14,06,43,987.74
2016,10,14,06,44,987.78
2016,10,14,06,45,987.71
2016,10,14,06,46,987.64
2016,10,14,06,47,987.61
2016,10,14,06,48,987.71
2016,10,14,06,49,987.78
2016,10,14,06,50,987.81
2016,10,14,06,51,987.81
2016,10,14,06,52,987.74
2016,10,14,06,53,987.84
2016,10,14,06,54,987.77
2016,10,14,06,55,987.67
2016,10,14,06,56,987.57
2016,10,14,06,57,987.47
2016,10,14,06,58,987.40
2016,10,14,06,59,987.44
2016,10,14,07,00,987.47
2016,10,14,07,01,987.57
2016,10,14,07,02,987.67
2016,10,14,07,03,987.71
2016,10,14,07,04,987.67
2016,10,14,07,05,987.74
2016,10,14,07,06,987.81
2016,10,14,07,07,987.88
2016,10,14,07,08,987.88
2016,10,14,07,09,987.84
2016,10,14,07,10,987.91
2016,10,14,07,11,987.95
2016,10,14,07,12,987.95
2016,10,14,07,13,987.95
2016,10,14,07,14,987.91
2016,10,14,07,15,987.88
2016,10,14,07,16,987.84
2016,10,14,07,17,987.88
2016,10,14,07,18,988.01
2016,10,14,07,19,988.09
2016,10,14,07,20,988.18
2016,10,14,07,21,988.15
2016,10,14,07,22,988.15
2016,10,14,07,23,988.05
2016,10,14,07,24,988.04
2016,10,14,07,25,987.95
2016,10,14,07,26,987.91
2016,10,14,07,27,987.88
2016,10,14,07,28,987.78
2016,10,14,07,29,987.74
2016,10,14,07,30,987.78
2016,10,14,07,31,987.78
2016,10,14,07,32,987.74
2016,10,14,07,33,987.78
2016,10,14,07,34,987.78
2016,10,14,07,35,987.78
2016,10,14,07,36,987.78
2016,10,14,07,37,987.78
2016,10,14,07,38,987.81
2016,10,14,07,39,987.78
2016,10,14,07,40,987.81
2016,10,14,07,41,987.81
2016,10,14,07,42,987.84
2016,10,14,07,43,987.84
2016,10,14,07,44,987.78
2016,10,14,07,45,987.78
2016,10,14,07,46,987.81
2016,10,14,07,47,987.81
2016,10,14,07,48,987.88
2016,10,14,07,49,987.88
2016,10,14,07,50,987.95
2016,10,14,07,51,987.91
2016,10,14,07,52,987.91
2016,10,14,07,53,987.98
2016,10,14,07,54,988.01
2016,10,14,07,55,988.05
2016,10,14,07,56,988.01
2016,10,14,07,57,987.95
2016,10,14,07,58,987.95
2016,10,14,07,59,987.84
2016,10,14,08,00,987.78
2016,10,14,08,01,987.71
2016,10,14,08,02,987.63
2016,10,14,08,03,987.44
2016,10,14,08,04,987.47
2016,10,14,08,05,987.54
2016,10,14,08,06,987.47
2016,10,14,08,07,987.44
2016,10,14,08,08,987.47
2016,10,14,08,09,987.47
2016,10,14,08,10,987.57
2016,10,14,08,11,987.57
2016,10,14,08,12,987.54
2016,10,14,08,13,987.47
2016,10,14,08,14,987.26
2016,10,14,08,15,987.10
2016,10,14,08,16,987.03
2016,10,14,08,17,987.03
2016,10,14,08,18,987.03
2016,10,14,08,19,987.03
2016,10,14,08,20,987.03
2016,10,14,08,21,987.10
2016,10,14,08,22,987.03
2016,10,14,08,23,987.17
2016,10,14,08,24,987.13
2016,10,14,08,25,987.27
2016,10,14,08,26,987.27
2016,10,14,08,27,987.27
2016,10,14,08,28,987.31
2016,10,14,08,29,987.44
2016,10,14,08,30,987.44
2016,10,14,08,31,987.44
2016,10,14,08,32,987.43
2016,10,14,08,33,987.34
2016,10,14,08,34,987.27
2016,10,14,08,35,987.34
2016,10,14,08,36,987.34
2016,10,14,08,37,987.44
2016,10,14,08,38,987.40
2016,10,14,08,39,987.44
2016,10,14,08,40,987.46
2016,10,14,08,41,987.34
2016,10,14,08,42,987.40
2016,10,14,08,43,987.40
2016,10,14,08,44,987.30
2016,10,14,08,45,987.30
2016,10,14,08,46,987.34
2016,10,14,08,47,987.20
2016,10,14,08,48,987.13
2016,10,14,08,49,987.13
2016,10,14,08,50,987.13
2016,10,14,08,51,987.10
2016,10,14,08,52,987.13
2016,10,14,08,53,987.03
2016,10,14,08,54,987.03
2016,10,14,08,55,987.03
2016,10,14,08,56,986.97
2016,10,14,08,57,987.06
2016,10,14,08,58,987.10
2016,10,14,08,59,987.03
2016,10,14,09,00,986.99
2016,10,14,09,01,986.90
2016,10,14,09,02,986.90
2016,10,14,09,03,986.86
2016,10,14,09,04,986.86
2016,10,14,09,05,986.79
2016,10,14,09,06,986.83
2016,10,14,09,07,986.79
2016,10,14,09,08,986.79
2016,10,14,09,09,986.79
2016,10,14,09,10,986.79
2016,10,14,09,11,986.79
2016,10,14,09,12,986.69
2016,10,14,09,13,986.69
2016,10,14,09,14,986.65
2016,10,14,09,15,986.49
2016,10,14,09,16,986.46
2016,10,14,09,17,986.47
2016,10,14,09,18,986.59
2016,10,14,09,19,986.70
2016,10,14,09,20,986.79
2016,10,14,09,21,986.90
2016,10,14,09,22,986.96
2016,10,14,09,23,987.00
2016,10,14,09,24,987.10
2016,10,14,09,25,987.13
2016,10,14,09,26,987.13
2016,10,14,09,27,987.21
2016,10,14,09,28,987.34
2016,10,14,09,29,987.34
2016,10,14,09,30,987.40
2016,10,14,09,31,987.44
2016,10,14,09,32,987.44
2016,10,14,09,33,987.43
2016,10,14,09,34,987.34
2016,10,14,09,35,987.34
2016,10,14,09,36,987.30
2016,10,14,09,37,987.30
2016,10,14,09,38,987.30
2016,10,14,09,39,987.23
2016,10,14,09,40,987.13
2016,10,14,09,41,987.17
2016,10,14,09,42,987.17
2016,10,14,09,43,987.13
2016,10,14,09,44,987.13
2016,10,14,09,45,987.17
2016,10,14,09,46,987.20
2016,10,14,09,47,987.20
2016,10,14,09,48,987.20
2016,10,14,09,49,987.20
2016,10,14,09,50,987.20
2016,10,14,09,51,987.19
2016,10,14,09,52,987.06
2016,10,14,09,53,987.03
2016,10,14,09,54,986.93
2016,10,14,09,55,987.00
2016,10,14,09,56,987.00
2016,10,14,09,57,986.86
2016,10,14,09,58,986.90
2016,10,14,09,59,986.73
2016,10,14,10,00,986.66
2016,10,14,10,01,986.59
2016,10,14,10,02,986.52
2016,10,14,10,03,986.52
2016,10,14,10,04,986.52
2016,10,14,10,05,986.49
2016,10,14,10,06,986.46
2016,10,14,10,07,986.35
2016,10,14,10,08,986.35
2016,10,14,10,09,986.42
2016,10,14,10,10,986.35
2016,10,14,10,11,986.35
2016,10,14,10,12,986.35
2016,10,14,10,13,986.39
2016,10,14,10,14,986.35
2016,10,14,10,15,986.32
2016,10,14,10,16,986.25
2016,10,14,10,17,986.32
2016,10,14,10,18,986.22
2016,10,14,10,19,986.25
2016,10,14,10,20,986.22
2016,10,14,10,21,986.29
2016,10,14,10,22,986.35
2016,10,14,10,23,986.29
2016,10,14,10,24,986.29
2016,10,14,10,25,986.22
2016,10,14,10,26,986.25
2016,10,14,10,27,986.25
2016,10,14,10,28,986.35
2016,10,14,10,29,986.42
2016,10,14,10,30,986.46
2016,10,14,10,31,986.46
2016,10,14,10,32,986.39
2016,10,14,10,33,986.42
2016,10,14,10,34,986.49
2016,10,14,10,35,986.42
2016,10,14,10,36,986.42
2016,10,14,10,37,986.46
2016,10,14,10,38,986.49
2016,10,14,10,39,986.42
2016,10,14,10,40,986.49
2016,10,14,10,41,986.39
2016,10,14,10,42,986.35
2016,10,14,10,43,986.35
2016,10,14,10,44,986.39
2016,10,14,10,45,986.39
2016,10,14,10,46,986.35
2016,10,14,10,47,986.39
2016,10,14,10,48,986.42
2016,10,14,10,49,986.46
2016,10,14,10,50,986.39
2016,10,14,10,51,986.42
2016,10,14,10,52,986.35
2016,10,14,10,53,986.35
2016,10,14,10,54,986.32
2016,10,14,10,55,986.32
2016,10,14,10,56,986.28
2016,10,14,10,57,986.15
2016,10,14,10,58,986.12
2016,10,14,10,59,986.08
2016,10,14,11,00,986.05
2016,10,14,11,01,986.02
2016,10,14,11,02,985.98
2016,10,14,11,03,986.02
2016,10,14,11,04,985.98
2016,10,14,11,05,985.98
2016,10,14,11,06,985.98
2016,10,14,11,07,985.95
2016,10,14,11,08,985.98
2016,10,14,11,09,985.98
2016,10,14,11,10,985.98
2016,10,14,11,11,985.91
2016,10,14,11,12,985.91
2016,10,14,11,13,985.85
2016,10,14,11,14,985.78
2016,10,14,11,15,985.78
2016,10,14,11,16,985.78
2016,10,14,11,17,985.81
2016,10,14,11,18,985.78
2016,10,14,11,19,985.78
2016,10,14,11,20,985.78
2016,10,14,11,21,985.78
2016,10,14,11,22,985.68
2016,10,14,11,23,985.54
2016,10,14,11,24,985.54
2016,10,14,11,25,985.57
2016,10,14,11,26,985.47
2016,10,14,11,27,985.51
2016,10,14,11,28,985.51
2016,10,14,11,29,985.57
2016,10,14,11,30,985.54
2016,10,14,11,31,985.61
2016,10,14,11,32,985.57
2016,10,14,11,33,985.57
2016,10,14,11,34,985.57
2016,10,14,11,35,985.54
2016,10,14,11,36,985.54
2016,10,14,11,37,985.51
2016,10,14,11,38,985.54
2016,10,14,11,39,985.54
2016,10,14,11,40,985.51
2016,10,14,11,41,985.51
2016,10,14,11,42,985.54
2016,10,14,11,43,985.47
2016,10,14,11,44,985.41
2016,10,14,11,45,985.51
2016,10,14,11,46,985.47
2016,10,14,11,47,985.57
2016,10,14,11,48,985.61
2016,10,14,11,49,985.64
2016,10,14,11,50,985.61
2016,10,14,11,51,985.68
2016,10,14,11,52,985.61
2016,10,14,11,53,985.61
2016,10,14,11,54,985.54
2016,10,14,11,55,985.47
2016,10,14,11,56,985.47
2016,10,14,11,57,985.44
2016,10,14,11,58,985.37
2016,10,14,11,59,985.41
2016,10,14,12,00,985.34
2016,10,14,12,01,985.10
2016,10,14,12,02,985.03
2016,10,14,12,03,985.00
2016,10,14,12,04,985.03
2016,10,14,12,05,985.00
2016,10,14,12,06,984.90
2016,10,14,12,07,985.00
2016,10,14,12,08,984.93
2016,10,14,12,09,984.91
2016,10,14,12,10,985.03
2016,10,14,12,11,985.01
2016,10,14,12,12,985.10
2016,10,14,12,13,985.02
2016,10,14,12,14,984.90
2016,10,14,12,15,984.90
2016,10,14,12,16,984.76
2016,10,14,12,17,984.73
2016,10,14,12,18,984.69
2016,10,14,12,19,984.73
2016,10,14,12,20,984.55
2016,10,14,12,21,984.39
2016,10,14,12,22,984.46
2016,10,14,12,23,984.42
2016,10,14,12,24,984.53
2016,10,14,12,25,984.56
2016,10,14,12,26,984.59
2016,10,14,12,27,984.48
2016,10,14,12,28,984.39
2016,10,14,12,29,984.32
2016,10,14,12,30,984.36
2016,10,14,12,31,984.29
2016,10,14,12,32,984.25
2016,10,14,12,33,984.22
2016,10,14,12,34,984.15
2016,10,14,12,35,984.15
2016,10,14,12,36,984.08
2016,10,14,12,37,984.05
2016,10,14,12,38,984.12
2016,10,14,12,39,984.08
2016,10,14,12,40,984.07
2016,10,14,12,41,983.95
2016,10,14,12,42,983.88
2016,10,14,12,43,983.78
2016,10,14,12,44,983.74
2016,10,14,12,45,983.64
2016,10,14,12,46,983.64
2016,10,14,12,47,983.84
2016,10,14,12,48,983.68
2016,10,14,12,49,983.78
2016,10,14,12,50,983.75
2016,10,14,12,51,983.75
2016,10,14,12,52,983.78
2016,10,14,12,53,983.71
2016,10,14,12,54,983.75
2016,10,14,12,55,983.71
2016,10,14,12,56,983.75
2016,10,14,12,57,983.71
2016,10,14,12,58,983.75
2016,10,14,12,59,983.68
2016,10,14,13,00,983.71
2016,10,14,13,01,983.68
2016,10,14,13,02,983.75
2016,10,14,13,03,983.68
2016,10,14,13,04,983.71
2016,10,14,13,05,983.64
2016,10,14,13,06,983.64
2016,10,14,13,07,983.64
2016,10,14,13,08,983.61
2016,10,14,13,09,983.58
2016,10,14,13,10,983.54
2016,10,14,13,11,983.51
2016,10,14,13,12,983.58
2016,10,14,13,13,983.52
2016,10,14,13,14,983.61
2016,10,14,13,15,983.58
2016,10,14,13,16,983.58
2016,10,14,13,17,983.48
2016,10,14,13,18,983.48
2016,10,14,13,19,983.51
2016,10,14,13,20,983.51
2016,10,14,13,21,983.44
2016,10,14,13,22,983.37
2016,10,14,13,23,983.27
2016,10,14,13,24,983.31
2016,10,14,13,25,983.27
2016,10,14,13,26,983.24
2016,10,14,13,27,983.31
2016,10,14,13,28,983.27
2016,10,14,13,29,983.20
2016,10,14,13,30,983.27
2016,10,14,13,31,983.24
2016,10,14,13,32,983.27
2016,10,14,13,33,983.27
2016,10,14,13,34,983.17
2016,10,14,13,35,983.27
2016,10,14,13,36,983.31
2016,10,14,13,37,983.31
2016,10,14,13,38,983.37
2016,10,14,13,39,983.54
2016,10,14,13,40,983.54
2016,10,14,13,41,983.58
2016,10,14,13,42,983.59
2016,10,14,13,43,983.68
2016,10,14,13,44,983.54
2016,10,14,13,45,983.60
2016,10,14,13,46,983.51
2016,10,14,13,47,983.48
2016,10,14,13,48,983.44
2016,10,14,13,49,983.51
2016,10,14,13,50,983.44
2016,10,14,13,51,983.41
2016,10,14,13,52,983.34
2016,10,14,13,53,983.34
2016,10,14,13,54,983.31
2016,10,14,13,55,983.37
2016,10,14,13,56,983.20
2016,10,14,13,57,983.31
2016,10,14,13,58,983.27
2016,10,14,13,59,983.24
2016,10,14,14,00,983.27
2016,10,14,14,01,983.27
2016,10,14,14,02,983.20
2016,10,14,14,03,983.04
2016,10,14,14,04,983.10
2016,10,14,14,05,983.17
2016,10,14,14,06,983.14
2016,10,14,14,07,983.16
2016,10,14,14,08,983.07
2016,10,14,14,09,983.10
2016,10,14,14,10,983.10
2016,10,14,14,11,983.07
2016,10,14,14,12,983.00
2016,10,14,14,13,982.93
2016,10,14,14,14,982.90
2016,10,14,14,15,982.90
2016,10,14,14,16,982.93
2016,10,14,14,17,982.97
2016,10,14,14,18,983.00
2016,10,14,14,19,983.04
2016,10,14,14,20,983.00
2016,10,14,14,21,983.07
2016,10,14,14,22,983.07
2016,10,14,14,23,983.04
2016,10,14,14,24,983.07
2016,10,14,14,25,983.14
2016,10,14,14,26,983.07
2016,10,14,14,27,983.14
2016,10,14,14,28,983.17
2016,10,14,14,29,983.10
2016,10,14,14,30,983.14
2016,10,14,14,31,983.17
2016,10,14,14,32,983.24
2016,10,14,14,33,983.07
2016,10,14,14,34,983.07
2016,10,14,14,35,983.04
2016,10,14,14,36,983.14
2016,10,14,14,37,983.17
2016,10,14,14,38,983.14
2016,10,14,14,39,983.24
2016,10,14,14,40,983.20
2016,10,14,14,41,983.31
2016,10,14,14,42,983.31
2016,10,14,14,43,983.41
2016,10,14,14,44,983.48
2016,10,14,14,45,983.34
2016,10,14,14,46,983.20
2016,10,14,14,47,983.17
2016,10,14,14,48,983.24
2016,10,14,14,49,983.24
2016,10,14,14,50,983.17
2016,10,14,14,51,983.20
2016,10,14,14,52,983.17
2016,10,14,14,53,983.14
2016,10,14,14,54,983.14
2016,10,14,14,55,983.10
2016,10,14,14,56,983.07
2016,10,14,14,57,983.10
2016,10,14,14,58,983.17
2016,10,14,14,59,983.20
2016,10,14,15,00,983.27
2016,10,14,15,01,983.24
2016,10,14,15,02,983.24
2016,10,14,15,03,983.34
2016,10,14,15,04,983.31
2016,10,14,15,05,983.37
2016,10,14,15,06,983.48
2016,10,14,15,07,983.51
2016,10,14,15,08,983.51
2016,10,14,15,09,983.54
2016,10,14,15,10,983.54
2016,10,14,15,11,983.65
2016,10,14,15,12,983.78
2016,10,14,15,13,983.88
2016,10,14,15,14,983.86
2016,10,14,15,15,984.03
2016,10,14,15,16,984.15
2016,10,14,15,17,984.25
2016,10,14,15,18,984.32
2016,10,14,15,19,984.32
2016,10,14,15,20,984.25
2016,10,14,15,21,984.26
2016,10,14,15,22,984.43
2016,10,14,15,23,984.56
2016,10,14,15,24,984.59
2016,10,14,15,25,984.56
2016,10,14,15,26,984.63
2016,10,14,15,27,984.66
2016,10,14,15,28,984.69
2016,10,14,15,29,984.76
2016,10,14,15,30,984.73
2016,10,14,15,31,984.66
2016,10,14,15,32,984.83
2016,10,14,15,33,984.90
2016,10,14,15,34,984.97
2016,10,14,15,35,985.13
2016,10,14,15,36,985.03
2016,10,14,15,37,985.10
2016,10,14,15,38,985.10
2016,10,14,15,39,985.13
2016,10,14,15,40,985.24
2016,10,14,15,41,985.30
2016,10,14,15,42,985.20
2016,10,14,15,43,985.17
2016,10,14,15,44,985.17
2016,10,14,15,45,985.17
2016,10,14,15,46,985.30
2016,10,14,15,47,985.41
2016,10,14,15,48,985.41
2016,10,14,15,49,985.44
2016,10,14,15,50,985.61
2016,10,14,15,51,985.64
2016,10,14,15,52,985.68
2016,10,14,15,53,985.74
2016,10,14,15,54,985.81
2016,10,14,15,55,985.72
2016,10,14,15,56,985.95
2016,10,14,15,57,985.89
2016,10,14,15,58,986.05
2016,10,14,15,59,986.05
2016,10,14,16,00,986.05
2016,10,14,16,01,986.12
2016,10,14,16,02,986.32
2016,10,14,16,03,986.25
2016,10,14,16,04,986.22
2016,10,14,16,05,986.22
2016,10,14,16,06,986.22
2016,10,14,16,07,986.32
2016,10,14,16,08,986.32
2016,10,14,16,09,986.35
2016,10,14,16,10,986.42
2016,10,14,16,11,986.35
2016,10,14,16,12,986.50
2016,10,14,16,13,986.66
2016,10,14,16,14,986.66
2016,10,14,16,15,986.66
2016,10,14,16,16,986.73
2016,10,14,16,17,986.73
2016,10,14,16,18,986.79
2016,10,14,16,19,986.83
2016,10,14,16,20,986.93
2016,10,14,16,21,986.86
2016,10,14,16,22,987.00
2016,10,14,16,23,987.00
2016,10,14,16,24,986.96
2016,10,14,16,25,986.93
2016,10,14,16,26,987.27
2016,10,14,16,27,987.20
2016,10,14,16,28,987.22
2016,10,14,16,29,987.57
2016,10,14,16,30,987.24
2016,10,14,16,31,987.40
2016,10,14,16,32,987.40
2016,10,14,16,33,987.37
2016,10,14,16,34,987.67
2016,10,14,16,35,987.47
2016,10,14,16,36,987.67